Volver al catálogo

THOR ABLESTAR DEB

ActivoLEO
NORAD 268·DEBRIS·🇺🇸 United States

Lanzado Jun 29, 1961 desde Cape Canaveral Space Force Station

Loading…

Próximos Pases (próximas 24 horas)

TLE

ActualizadoSource: Space-Track

Época: Sep 14, 2026, 09:27 UTC

1 00268U 61015CN  26257.39391240 -.00000214  00000-0 -50105-3 0  9995
2 00268  67.9411  42.2594 0646462  82.9819 313.1183 12.51854910964428

Sigue THOR ABLESTAR DEB en tiempo real con AllMySat

Download on the App Store